Weather History for Hailey, ID

Change the Weather History Date:

Saturday, May 4, 2013

  Actual Average Record
Temperature  
Mean Temperature 50 °F -  
Max Temperature 59 °F 59 °F 77 °F (2004)
Min Temperature 42 °F 34 °F 24 °F (1999)
Degree Days  
Heating Degree Days 14    
Moisture  
Dew Point 32 °F    
Average Humidity 56    
Maximum Humidity 76    
Minimum Humidity 31    
Precipitation  
Precipitation 0.00 in - - ()
Sea Level Pressure  
Sea Level Pressure 30.05 in    
Wind  
Wind Speed 12 mph (NW)    
Max Wind Speed 17 mph    
Max Gust Speed 22 mph    
Visibility 10 miles    
Events      
Averages and records for this station are not official NWS values.
T = Trace of Precipitation, MM = Missing Value Source: NWS Daily Summary

Daily Weather History Graph

Daily Weather History Graph

Search for Another Location

Airport:

Trip Planner

Search our weather history database for the weather conditions in past years. The results will help you decide how hot, cold, wet, or windy it might be!

Date:

Astronomy

May. 04, 2013 Rise Set
Actual Time 6:25 AM MDT 8:43 PM MDT
Civil Twilight 5:53 AM MDT 9:15 PM MDT
Nautical Twilight 5:14 AM MDT 9:54 PM MDT
Astronomical Twilight 4:30 AM MDT 10:38 PM MDT
Moon 3:35 AM MDT (5/4) 3:36 PM MDT (5/4)
Length of Visible Light 15h 21m
Length of Day
14h 17m
Waning Crescent, 26% of the Moon is Illuminated
May 4
Waning Crescent
May 9
New
May 17
First Quarter
May 24
Full
May 31
Last Quarter

Hourly Weather History & Observations

Time (MDT) Temp. Windchill Dew Point Humidity Pressure Visibility Wind Dir Wind Speed Gust Speed Precip Events Conditions
12:15 AM 50.0 °F - 32.0 °F 50% 30.08 in 10.0 mi North 11.5 mph 16.1 mph N/A   Mostly Cloudy
12:35 AM 48.2 °F - 32.0 °F 54% 30.08 in 10.0 mi North 15.0 mph 21.9 mph N/A   Scattered Clouds
12:55 AM 46.4 °F 40.7 °F 33.8 °F 62% 30.08 in 10.0 mi North 12.7 mph - N/A   Scattered Clouds
1:15 AM 46.4 °F 40.7 °F 32.0 °F 57% 30.08 in 10.0 mi NNW 12.7 mph - N/A   Clear
1:35 AM 46.4 °F 41.1 °F 32.0 °F 57% 30.08 in 10.0 mi NNW 11.5 mph - N/A   Mostly Cloudy
1:55 AM 48.2 °F - 32.0 °F 54% 30.07 in 10.0 mi NW 11.5 mph - N/A   Overcast
2:15 AM 48.2 °F - 32.0 °F 54% 30.07 in 10.0 mi NNW 12.7 mph 18.4 mph N/A   Overcast
2:35 AM 46.4 °F 41.5 °F 32.0 °F 57% 30.06 in 10.0 mi NW 10.4 mph - N/A   Mostly Cloudy
2:55 AM 46.4 °F 41.5 °F 32.0 °F 57% 30.06 in 10.0 mi NW 10.4 mph - N/A   Scattered Clouds
3:15 AM 46.4 °F 40.7 °F 33.8 °F 62% 30.06 in 10.0 mi NW 12.7 mph - N/A   Mostly Cloudy
3:35 AM 46.4 °F 40.4 °F 33.8 °F 62% 30.06 in 10.0 mi NW 13.8 mph - N/A   Overcast
3:55 AM 44.6 °F 37.2 °F 33.8 °F 66% 30.06 in 10.0 mi NW 17.3 mph - N/A   Overcast
4:15 AM 44.6 °F 37.2 °F 33.8 °F 66% 30.06 in 10.0 mi NNW 17.3 mph 20.7 mph N/A   Overcast
4:35 AM 44.6 °F 37.8 °F 33.8 °F 66% 30.06 in 10.0 mi NW 15.0 mph 21.9 mph N/A   Overcast
4:55 AM 42.8 °F 34.8 °F 35.6 °F 76% 30.06 in 10.0 mi NW 17.3 mph 21.9 mph N/A   Overcast
5:15 AM 42.8 °F 35.1 °F 33.8 °F 70% 30.06 in 10.0 mi NW 16.1 mph - N/A   Overcast
5:35 AM 42.8 °F 34.8 °F 35.6 °F 76% 30.06 in 10.0 mi NW 17.3 mph - N/A   Overcast
5:55 AM 42.8 °F 35.8 °F 33.8 °F 70% 30.06 in 10.0 mi NW 13.8 mph - N/A   Overcast
6:15 AM 42.8 °F 36.2 °F 33.8 °F 70% 30.06 in 10.0 mi NNW 12.7 mph - N/A   Overcast
6:35 AM 42.8 °F 36.6 °F 33.8 °F 70% 30.06 in 10.0 mi NNW 11.5 mph 17.3 mph N/A   Overcast
6:50 AM 44.6 °F 38.4 °F 35.6 °F 71% 30.06 in 10.0 mi NW 12.7 mph 19.6 mph N/A   Mostly Cloudy
6:55 AM 42.8 °F 36.2 °F 33.8 °F 70% 30.06 in 10.0 mi NNW 12.7 mph 19.6 mph N/A   Overcast
7:47 AM 44.6 °F 39.2 °F 35.6 °F 71% 30.07 in 10.0 mi WNW 10.4 mph - N/A   Mostly Cloudy
8:50 AM 48.2 °F - 33.8 °F 58% 30.08 in 10.0 mi WNW 8.1 mph - N/A   Mostly Cloudy
9:55 AM 51.8 °F - 32.0 °F 47% 30.06 in 10.0 mi NW 8.1 mph - N/A   Mostly Cloudy
10:55 AM 53.6 °F - 32.0 °F 44% 30.07 in 10.0 mi WNW 13.8 mph - N/A   Mostly Cloudy
12:50 PM 55.4 °F - 30.2 °F 38% 30.05 in 10.0 mi NW 9.2 mph - N/A   Overcast
1:47 PM 57.2 °F - 28.4 °F 33% 30.02 in 10.0 mi NE 10.4 mph - N/A   Mostly Cloudy
2:47 PM 59.0 °F - 28.4 °F 31% 30.01 in 10.0 mi West 6.9 mph - N/A   Mostly Cloudy
3:47 PM 57.2 °F - 28.4 °F 33% 30.00 in 10.0 mi SSW 5.8 mph - N/A   Mostly Cloudy
4:50 PM 55.4 °F - 32.0 °F 41% 29.99 in 10.0 mi West 6.9 mph - N/A   Mostly Cloudy
5:47 PM 55.4 °F - 32.0 °F 41% 29.99 in 10.0 mi West 5.8 mph - N/A   Mostly Cloudy
6:47 PM 57.2 °F - 30.2 °F 36% 30.00 in 10.0 mi NNW 5.8 mph - N/A   Mostly Cloudy
8:47 PM 55.4 °F - 28.4 °F 36% 30.01 in 10.0 mi NNE 6.9 mph - N/A   Mostly Cloudy
9:47 PM 53.6 °F - 30.2 °F 41% 30.02 in 10.0 mi NNE 11.5 mph - N/A   Mostly Cloudy
10:47 PM 48.2 °F - 30.2 °F 50% 30.03 in 10.0 mi West 4.6 mph - N/A   Scattered Clouds
11:15 PM 46.4 °F 42.9 °F 32.0 °F 57% 30.02 in 10.0 mi NNW 6.9 mph - N/A   Clear
11:35 PM 46.4 °F 41.5 °F 32.0 °F 57% 30.02 in 10.0 mi NNW 10.4 mph - N/A   Clear
11:55 PM 46.4 °F 41.9 °F 32.0 °F 57% 30.02 in 10.0 mi NNW 9.2 mph - N/A   Clear